Wind_Speed
42 42 42 42 41 42 43 44 46 45 45 44 45 46 47 47 48 48 48 47 47 46 45 43 42 40 39 38 37 36 36 34 34 33 32 32 31 31 32 35 36 35 38 41
43 42 43 43 42 43 44 44 45 46 45 44 46 47 47 48 48 48 47 47 46 45 44 42 41 39 38 38 36 36 35 33 32 30 30 29 29 29 31 33 34 34 36 37
44 43 45 45 42 43 44 44 45 46 45 45 46 47 48 48 48 47 47 46 45 44 42 40 39 38 37 36 35 35 34 32 30 28 28 27 27 28 29 31 32 32 35 36
46 46 47 45 43 44 44 44 45 45 45 46 46 47 47 47 47 47 46 44 43 42 40 39 37 36 35 35 34 34 33 31 29 27 27 26 26 26 27 29 30 31 33 35
47 48 49 45 43 43 44 44 44 45 45 45 46 46 45 46 46 45 44 43 41 41 39 37 35 34 34 34 34 33 31 29 27 27 27 25 24 24 25 27 29 30 31 32
45 46 47 44 43 44 46 46 44 45 45 46 46 46 44 44 45 43 43 41 40 39 37 35 34 33 33 33 33 32 29 28 27 27 26 24 23 23 23 24 26 28 28 30
44 46 46 43 42 43 45 45 45 45 45 46 46 45 44 44 43 42 41 40 39 37 36 34 33 32 32 32 31 30 28 28 26 25 23 22 22 22 22 23 24 26 28 29
44 45 44 41 42 43 44 44 44 44 44 44 43 43 42 41 41 40 39 38 37 35 34 33 32 31 31 31 30 28 27 25 24 23 22 21 21 21 21 21 23 25 27 30
44 43 42 42 43 43 43 43 43 43 42 42 41 41 40 40 39 39 38 37 36 34 33 32 31 30 30 29 28 27 26 24 22 20 20 19 20 21 20 20 22 25 28 30
42 40 40 41 41 41 42 42 42 42 41 40 40 39 39 39 39 38 37 36 34 33 32 31 30 29 28 27 27 26 23 22 21 19 18 18 20 21 21 22 23 26 29 31
42 40 41 40 41 41 42 42 42 42 41 40 40 39 38 38 38 37 35 34 33 31 30 29 29 28 27 26 25 23 21 20 19 18 17 17 18 21 21 22 23 24 27 31
41 40 42 40 40 42 42 42 41 41 39 39 39 38 37 37 36 35 34 33 32 31 30 29 28 27 26 25 24 22 20 18 18 18 17 17 17 19 22 22 24 25 26 29
41 42 42 41 41 41 41 40 39 38 37 37 37 36 36 36 34 33 32 31 31 30 28 27 25 24 24 24 23 21 19 18 17 17 17 17 17 19 21 23 24 25 26 28
40 41 40 40 39 39 38 37 37 36 36 36 35 35 34 33 32 31 30 29 28 28 27 26 24 23 23 23 22 20 19 18 17 17 17 18 18 20 21 22 23 25 26 28
38 38 38 38 37 37 36 35 35 34 34 33 33 32 32 31 29 28 27 27 26 25 24 23 23 22 22 22 21 19 19 18 17 17 17 17 18 20 21 21 23 25 27 28
35 36 36 36 35 35 34 34 33 32 31 31 31 31 30 28 27 26 26 25 25 24 23 22 22 21 21 20 19 18 18 17 17 16 17 19 19 20 21 22 24 26 28 29
32 32 32 32 32 32 33 32 31 30 30 30 30 29 27 26 26 25 25 25 24 23 22 21 21 21 20 19 18 17 16 15 16 16 17 19 21 22 23 24 25 27 28 29
30 29 29 29 29 29 29 29 29 29 28 28 26 26 26 25 25 25 25 25 24 23 22 20 19 18 18 17 16 15 14 14 14 14 17 19 21 22 22 23 25 27 28 28
25 25 26 26 27 27 26 26 27 26 26 25 25 24 24 24 23 24 24 24 23 22 21 19 18 17 16 15 15 14 13 12 13 15 16 18 20 21 22 23 25 26 27 28
23 24 24 24 24 23 23 24 24 23 23 23 22 22 23 23 23 23 23 22 22 21 20 18 17 16 15 15 15 14 13 13 12 14 16 18 19 20 21 23 25 25 26 27
22 22 22 22 22 22 22 22 21 21 21 22 22 22 22 23 23 22 21 21 20 19 18 17 16 15 15 15 14 14 14 14 14 15 16 18 19 20 22 23 25 25 26 27
21 21 21 21 21 21 20 20 20 20 20 21 21 22 22 22 21 20 20 19 18 17 16 15 14 14 14 14 14 14 15 15 15 15 17 18 20 22 23 24 25 25 26 27
18 19 20 20 19 19 19 19 19 19 20 20 20 20 20 20 20 19 19 17 16 15 15 14 13 13 13 13 14 14 15 15 15 16 18 19 21 23 24 25 26 26 26 26
18 18 18 18 18 18 18 18 18 19 19 20 19 19 19 19 19 18 17 16 15 14 13 13 13 13 13 13 13 14 15 16 17 17 19 20 22 23 24 26 27 27 26 26
17 17 16 16 17 17 17 17 18 18 19 19 19 18 18 17 17 16 16 15 14 13 13 12 12 12 13 13 13 14 16 16 17 18 19 20 22 24 25 26 27 26 25 25
16 15 15 16 16 16 16 17 18 18 18 18 17 17 16 16 15 15 14 14 13 13 12 11 11 12 12 13 14 15 16 17 18 18 19 21 23 24 25 26 27 27 26 25
14 14 15 15 15 15 16 17 17 16 16 16 16 15 15 14 14 13 13 13 12 11 11 10 11 12 12 13 14 15 16 18 19 20 21 22 23 24 26 27 27 27 26 25
Wind_Direction
274 275 277 279 281 283 285 288 290 293 294 297 298 299 301 302 303 304 304 305 305 304 304 303 301 299 297 297 295 294 293 289 285 282 277 273 267 262 253 245 240 238 234 233
272 273 275 276 279 283 285 288 291 292 294 296 297 298 300 302 303 304 304 304 304 303 303 303 302 298 295 295 296 295 293 290 286 281 277 272 263 257 251 244 239 235 233 233
272 273 275 276 280 283 285 287 289 292 294 295 296 298 300 302 303 304 305 305 304 304 303 302 300 298 295 295 296 296 293 288 284 280 277 270 261 256 250 242 236 231 233 233
271 273 274 279 280 282 283 285 288 291 292 294 296 298 300 301 303 304 305 305 303 302 301 301 300 297 295 296 296 295 293 287 281 277 277 272 264 255 248 243 237 234 233 233
272 274 276 278 281 283 284 285 288 291 292 293 295 297 299 301 302 304 304 303 302 301 301 299 298 296 295 295 296 296 293 287 280 278 277 273 266 255 248 243 236 231 229 228
273 276 278 280 281 282 283 285 288 290 292 294 296 297 299 300 301 302 301 300 299 299 299 299 298 295 294 294 295 295 292 288 283 281 276 269 260 253 246 237 229 223 222 224
272 276 278 280 281 282 284 288 289 291 293 295 296 297 299 300 300 300 299 298 299 298 297 298 298 296 295 293 293 292 291 288 284 282 275 264 255 250 243 233 225 220 218 217
272 275 278 279 279 281 285 287 289 291 292 294 295 297 298 299 299 300 299 299 299 298 296 297 297 296 295 293 291 291 291 287 283 276 268 258 249 244 237 231 225 220 216 215
272 275 277 278 280 282 285 286 288 290 292 294 295 296 297 298 299 300 300 300 299 297 297 298 297 296 294 291 289 289 286 284 282 276 268 257 244 235 231 230 226 220 215 214
272 274 276 277 278 281 283 285 287 290 291 292 294 294 296 298 298 299 300 300 299 297 296 297 296 295 295 292 289 288 284 281 278 275 266 255 241 234 231 230 226 219 215 212
272 273 275 276 278 281 283 285 287 288 289 290 292 293 295 297 298 298 298 298 297 297 296 296 295 294 293 293 291 287 281 278 276 270 260 251 242 234 229 227 223 218 213 209
272 272 274 276 279 281 283 285 287 287 287 288 290 292 294 296 297 297 296 296 296 295 295 295 294 292 291 292 290 286 280 276 272 266 258 247 238 232 228 223 219 216 210 205
272 272 274 277 279 282 284 285 286 286 287 288 289 291 293 295 295 295 295 295 295 295 295 295 293 291 289 290 288 282 276 273 269 262 254 245 237 230 222 215 213 212 208 204
271 272 273 275 278 280 282 283 285 286 287 287 288 291 292 293 293 294 294 294 294 294 295 294 290 287 285 285 284 278 271 267 265 258 250 241 233 226 220 213 206 206 204 202
271 272 273 274 277 279 281 283 284 285 285 286 288 291 291 292 293 293 294 294 294 295 295 292 289 286 284 282 280 274 268 264 261 256 248 237 227 220 217 212 204 203 201 200
270 272 273 274 277 279 282 283 283 283 283 285 287 289 290 291 292 293 293 293 294 295 294 291 288 286 284 283 280 274 268 264 258 251 240 228 221 214 210 206 203 202 199 196
271 272 274 276 278 279 281 281 281 282 282 284 287 288 289 289 290 291 293 294 294 294 293 289 287 286 283 281 277 272 266 261 253 243 232 221 214 210 207 205 202 198 195 192
271 272 274 276 278 280 280 280 280 280 281 283 285 287 288 289 290 292 293 293 293 293 291 288 285 283 280 278 272 265 260 253 244 236 226 218 212 207 203 201 199 197 193 192
272 273 275 277 278 279 279 280 280 280 280 282 284 286 287 288 289 291 292 292 291 291 288 284 282 280 276 271 264 258 252 245 236 227 221 215 211 207 202 198 195 194 192 191
274 275 276 277 277 277 277 279 278 278 279 281 283 285 287 288 290 291 292 291 290 289 285 280 277 273 268 263 255 248 242 237 228 219 213 209 207 204 200 197 195 193 192 193
276 276 277 277 276 276 277 277 277 277 279 282 284 285 287 290 292 292 292 292 289 287 282 276 271 265 260 256 248 240 234 229 222 216 210 206 204 200 195 195 194 193 192 192
277 277 276 276 276 276 276 276 277 278 281 284 286 287 288 291 291 292 291 289 288 286 280 274 268 262 256 251 243 234 226 221 219 216 211 207 204 199 195 194 193 192 192 192
278 277 276 277 277 276 276 277 278 281 284 286 287 287 289 291 290 290 289 287 285 282 276 270 265 260 253 246 238 229 222 217 215 214 210 206 202 200 197 196 195 193 192 190
281 281 280 279 279 278 277 278 280 283 285 287 288 289 290 289 289 287 286 284 283 281 276 268 260 253 245 239 232 225 220 215 214 214 210 206 202 199 197 194 192 191 190 190
284 283 282 283 282 280 278 279 282 284 286 289 290 290 290 290 288 285 283 281 279 278 274 267 255 245 238 232 226 220 216 211 210 208 204 200 196 195 194 192 191 190 190 190
283 281 281 283 282 280 280 282 284 286 287 288 289 290 290 289 287 285 283 281 277 275 270 258 245 235 231 226 221 217 213 207 203 201 199 196 194 193 193 192 189 188 188 187
281 281 282 282 282 282 283 284 286 287 287 288 289 291 291 291 288 285 282 280 277 273 263 248 236 229 226 222 218 215 210 205 202 200 197 194 193 191 190 189 187 185 185 184
Height
5596 5596 5594 5593 5592 5590 5586 5583 5580 5578 5575 5573 5567 5561 5556 5550 5544 5538 5532 5526 5520 5513 5507 5502 5497 5492 5488 5483 5478 5473 5469 5466 5462 5460 5457 5455 5454 5454 5455 5457 5461 5465 5470 5475
5584 5584 5582 5581 5581 5579 5575 5572 5568 5565 5563 5561 5555 5550 5544 5539 5533 5527 5521 5516 5510 5504 5498 5492 5487 5482 5478 5473 5469 5464 5460 5456 5453 5451 5449 5447 5446 5446 5446 5449 5452 5456 5461 5466
5571 5572 5568 5569 5572 5568 5565 5561 5557 5553 5552 5548 5543 5539 5533 5528 5522 5516 5511 5505 5499 5494 5488 5483 5477 5472 5468 5464 5459 5455 5451 5448 5445 5443 5441 5439 5438 5437 5438 5441 5444 5449 5454 5459
5557 5558 5555 5561 5559 5556 5553 5550 5546 5543 5540 5536 5531 5527 5522 5517 5511 5506 5500 5495 5489 5484 5479 5474 5468 5463 5459 5455 5451 5447 5443 5440 5438 5435 5433 5432 5430 5430 5431 5434 5437 5441 5446 5451
5544 5543 5543 5548 5547 5544 5539 5538 5536 5531 5528 5524 5520 5516 5513 5507 5500 5495 5490 5484 5479 5474 5469 5465 5460 5455 5451 5447 5443 5439 5435 5432 5430 5428 5426 5425 5424 5424 5425 5427 5430 5434 5439 5444
5532 5530 5531 5537 5535 5530 5527 5525 5525 5520 5516 5512 5508 5504 5502 5497 5490 5485 5480 5474 5469 5465 5460 5456 5452 5447 5443 5439 5435 5431 5428 5425 5423 5421 5420 5419 5419 5419 5420 5421 5425 5429 5434 5439
5520 5517 5519 5524 5521 5517 5516 5514 5512 5508 5504 5501 5496 5492 5489 5485 5480 5474 5470 5465 5460 5456 5451 5447 5443 5439 5435 5431 5428 5424 5421 5418 5416 5414 5413 5413 5413 5414 5415 5417 5420 5424 5429 5435
5508 5506 5511 5510 5508 5506 5504 5501 5498 5495 5492 5489 5485 5482 5478 5473 5469 5464 5459 5455 5450 5446 5443 5439 5434 5431 5427 5424 5420 5417 5415 5412 5411 5409 5408 5408 5409 5410 5411 5413 5417 5421 5425 5431
5497 5499 5498 5496 5495 5493 5491 5489 5487 5484 5481 5478 5474 5471 5467 5463 5459 5454 5450 5445 5441 5437 5434 5430 5426 5423 5419 5416 5413 5411 5408 5406 5404 5403 5403 5404 5405 5406 5408 5411 5414 5417 5422 5428
5485 5487 5485 5484 5482 5480 5479 5477 5475 5472 5470 5466 5463 5460 5457 5453 5449 5445 5440 5436 5432 5429 5425 5422 5418 5415 5412 5409 5407 5404 5402 5400 5399 5398 5398 5399 5401 5403 5405 5408 5411 5415 5419 5424
5473 5474 5472 5472 5470 5469 5467 5465 5463 5461 5458 5455 5452 5449 5446 5443 5439 5435 5431 5427 5424 5420 5417 5414 5410 5407 5405 5402 5400 5398 5396 5395 5394 5394 5394 5395 5396 5398 5401 5405 5408 5412 5417 5422
5461 5462 5459 5460 5459 5457 5456 5454 5452 5450 5447 5445 5442 5439 5436 5433 5430 5426 5422 5419 5415 5412 5409 5406 5403 5400 5398 5395 5393 5392 5391 5390 5390 5390 5390 5390 5392 5394 5397 5401 5405 5409 5414 5419
5448 5448 5447 5447 5447 5445 5444 5443 5441 5438 5436 5434 5432 5429 5426 5423 5420 5417 5414 5410 5407 5404 5401 5398 5396 5393 5391 5389 5387 5386 5385 5385 5385 5385 5385 5386 5388 5391 5394 5398 5401 5406 5410 5415
5436 5435 5436 5436 5435 5434 5433 5431 5429 5427 5425 5424 5422 5419 5417 5414 5411 5408 5405 5402 5399 5396 5394 5391 5389 5387 5384 5382 5381 5380 5380 5380 5380 5380 5381 5383 5385 5387 5391 5395 5399 5403 5408 5413
5425 5424 5424 5424 5424 5423 5422 5420 5419 5417 5415 5414 5412 5410 5407 5405 5402 5400 5397 5394 5392 5389 5387 5384 5382 5380 5378 5376 5375 5374 5374 5375 5375 5376 5377 5379 5381 5385 5388 5392 5396 5401 5406 5411
5414 5413 5413 5413 5413 5413 5411 5410 5409 5407 5406 5404 5402 5400 5398 5396 5394 5392 5389 5387 5384 5382 5380 5378 5376 5374 5372 5371 5369 5369 5369 5369 5370 5371 5373 5375 5378 5381 5385 5390 5394 5399 5404 5409
5404 5404 5404 5403 5403 5403 5402 5401 5399 5398 5397 5395 5394 5392 5390 5388 5386 5384 5382 5379 5377 5375 5373 5371 5369 5368 5366 5365 5364 5364 5364 5364 5365 5366 5369 5371 5375 5379 5383 5388 5392 5397 5402 5408
5394 5394 5394 5394 5394 5393 5392 5391 5390 5389 5388 5386 5385 5383 5382 5380 5378 5376 5374 5372 5370 5368 5366 5364 5363 5362 5361 5360 5360 5359 5360 5360 5361 5363 5365 5368 5372 5376 5380 5385 5390 5395 5400 5406
5385 5385 5385 5385 5384 5384 5383 5382 5381 5380 5379 5378 5377 5376 5374 5372 5370 5368 5366 5364 5363 5361 5359 5358 5357 5356 5355 5355 5355 5355 5356 5357 5358 5360 5362 5366 5369 5373 5378 5382 5388 5393 5398 5404
5377 5377 5376 5376 5375 5375 5374 5373 5373 5372 5371 5370 5369 5368 5366 5365 5363 5361 5359 5357 5356 5354 5352 5351 5351 5350 5350 5350 5351 5351 5352 5354 5355 5358 5361 5364 5367 5371 5375 5380 5385 5391 5396 5402
5369 5369 5368 5368 5367 5367 5366 5365 5365 5364 5364 5363 5362 5360 5359 5357 5355 5354 5352 5351 5349 5347 5346 5345 5345 5345 5345 5346 5347 5348 5349 5351 5353 5356 5359 5362 5365 5369 5373 5378 5383 5388 5394 5400
5362 5362 5361 5360 5360 5359 5358 5358 5358 5357 5356 5355 5354 5353 5351 5350 5348 5347 5345 5344 5343 5341 5340 5340 5340 5340 5340 5341 5342 5343 5345 5347 5350 5353 5356 5359 5363 5367 5371 5376 5381 5386 5392 5397
5355 5355 5354 5353 5353 5352 5352 5351 5350 5350 5349 5348 5347 5345 5344 5343 5341 5340 5339 5337 5336 5335 5334 5334 5334 5335 5335 5336 5338 5339 5341 5344 5347 5349 5353 5356 5360 5364 5369 5374 5379 5384 5390 5395
5349 5348 5347 5347 5346 5346 5345 5345 5344 5343 5342 5341 5339 5338 5337 5335 5334 5333 5332 5331 5330 5330 5329 5329 5329 5330 5331 5332 5333 5335 5337 5340 5343 5346 5350 5353 5357 5361 5366 5371 5377 5382 5388 5393
5343 5342 5341 5341 5340 5339 5339 5338 5337 5336 5335 5334 5333 5331 5330 5329 5328 5327 5326 5325 5325 5324 5324 5324 5324 5325 5326 5328 5329 5331 5334 5336 5339 5343 5346 5350 5355 5359 5364 5370 5375 5380 5386 5391
5337 5336 5336 5335 5334 5333 5333 5332 5331 5330 5329 5327 5326 5325 5324 5323 5322 5321 5320 5319 5319 5319 5319 5319 5320 5321 5322 5323 5326 5328 5330 5333 5336 5340 5343 5348 5352 5357 5362 5368 5373 5379 5384 5389
5331 5330 5330 5329 5328 5328 5327 5326 5325 5324 5323 5321 5320 5319 5318 5317 5316 5316 5315 5314 5314 5314 5314 5315 5315 5316 5318 5319 5322 5324 5326 5329 5333 5336 5341 5345 5350 5355 5361 5366 5371 5377 5382 5388